Location: Nied?wied?
(53.3665°N, 14.8184°E)
Time: 01:56:38
(UTC+00:00)

Cosmos 2237 - Pass Details

Date: 03 March 2021
Orbit: 844 x 857 km, 70.9° (Epoch: 11 April)

Event Time Altitude Azimuth Distance (km) Brightness Sun altitude
Rises 18:08:33 0° 197° (SSW) 3,412 7.5 -13.6°
Reaches altitude 10° 18:11:01 10° 194° (SSW) 2,482 6.7 -13.9°
Maximum altitude 18:16:37 61° 115° (ESE) 968 4.2 -14.8°
Drops below altitude 10° 18:22:17 10° 37° (NE) 2,502 6.4 -15.6°
Sets 18:24:46 0° 34° (NE) 3,443 7.1 -16.0°
